Regional Weather Roundup
Issued by NWS Kansas City/Pleasant Hill, MO

Home | Current Version | Previous Version | Text Only | Print | Product List | Glossary On
Versions: 1 2 3 4 5 6 7 8 9 10 11 12 13 14 15 16 17 18 19 20 21 22 23 24 25 26 27 28 29 30 31 32 33 34 35 36 37 38 39 40 41 42 43 44 45 46 47 48 49 50
000
ASUS43 KEAX 050611
RWREAX

WEATHER ROUNDUP FOR EASTERN KANSAS AND NORTHWEST MISSOURI
NATIONAL WEATHER SERVICE KANSAS CITY/PLEASANT HILL MO
1200 AM CST THU MAR 05 2015

KSZ040-057-103>105-MOZ028-029-037-043-050700-
...KANSAS CITY METROPOLITAN AREA...

CITY           SKY/WX    TMP DP  RH WIND       PRES   REMARKS
K.C. INTL      CLEAR     18   4  54 N10       30.42R WCI   6
6HR MIN TEMP:  18; 6HR MAX TEMP:  28;

K.C. DOWNTOWN  PTCLDY    24   3  40 N9        30.43S WCI  14
6HR MIN TEMP:  24; 6HR MAX TEMP:  29;

LEES SUMMIT    PTCLDY    23   4  44 N10       30.41S WCI  12
6HR MIN TEMP:  22; 6HR MAX TEMP:  27;

OLATHE - IXD   PTCLDY    21   6  52 N8        30.42R WCI  11
6HR MIN TEMP:  20; 6HR MAX TEMP:  26;

OLATHE - OJC   PTCLDY    23   1  38 N13       30.40R WCI  11
6HR MIN TEMP:  23; 6HR MAX TEMP:  27;

LAWRENCE       CLEAR     20   3  48 N8        30.44R WCI  10

$$

MOZ001>008-011>017-020>025-030>033-038>040-044>046-053-054-050700-
...NORTHERN AND CENTRAL MISSOURI...

CITY           SKY/WX    TMP DP  RH WIND       PRES   REMARKS
ST. JOSEPH     CLEAR     14   3  61 N8        30.46F WCI   3
6HR MIN TEMP:  13; 6HR MAX TEMP:  29;

MOSBY            N/A     21   7  53 N10       30.44R WCI  10
WARRENSBURG    PTCLDY    21  12  68 NW5       30.42R WCI  15
WHITEMAN AFB   PTCLDY    21   7  55 W5        30.39S WCI  14
6HR MIN TEMP:  19; 6HR MAX TEMP:  24;

CLINTON        CLEAR     23  12  63 NW5       30.42R WCI  17
SEDALIA        CLEAR     20   9  62 W5        30.40S WCI  13
6HR MIN TEMP:  20; 6HR MAX TEMP:  25;

WARSAW         NOT AVBL
MARSHALL       CLEAR     25  12  58 NW3       30.42R
CHILLICOTHE      N/A     18   3  52 N6        30.44F WCI  10
6HR MIN TEMP:  18; 6HR MAX TEMP:  29;

MOBERLY        PTCLDY    23   9  54 NW9       30.40S WCI  13
KIRKSVILLE     NOT AVBL

$$

MOZ041-047>049-056>058-063>065-088>090-097-050700-
...EASTERN AND SOUTHERN MISSOURI...

CITY           SKY/WX    TMP DP  RH WIND       PRES   REMARKS
ST. LOUIS INTL MOCLDY    22   4  46 N5        30.38F WCI  16
6HR MIN TEMP:  22; 6HR MAX TEMP:  24;

SPIRIT OF STL  MOCLDY    22   2  42 N6        30.38F WCI  14
COLUMBIA       PTCLDY    19   7  59 NW5       30.37F WCI  12
JEFFERSON CITY FAIR      21   8  57 NW3       30.39F
MEXICO         CLEAR     21  14  73 CALM      30.37F
ROLLA          PTCLDY    20   7  57 N5        30.32F WCI  13
OSAGE BEACH    MOCLDY    19  10  68 CALM      30.37F
SPRINGFIELD    MOCLDY    22  10  60 N8        30.33F WCI  12
BRANSON        CLOUDY    19  16  86 CALM      30.35R
NEVADA         PTCLDY    21  12  68 W5        30.42R WCI  15
JOPLIN         CLOUDY    23  11  60 N6        30.40R WCI  16
WEST PLAINS    CLOUDY    20   6  55 N10       30.31R WCI   9

$$

IAZ060-094-KSZ022-034>040-054-083-096-NEZ052-066-093-050700-
...KANSAS...SOUTHEAST NEBRASKA AND IOWA...

CITY           SKY/WX    TMP DP  RH WIND       PRES   REMARKS
TOPEKA         CLEAR     20   4  50 N10       30.45R WCI   9
6HR MIN TEMP:  20; 6HR MAX TEMP:  30;

MANHATTAN      CLEAR     18   6  59 CALM      30.44R
EMPORIA        PTCLDY    19   8  62 NW5       30.41R WCI  12
CHANUTE        CLOUDY    22  13  68 NW3       30.42R
WICHITA        PTCLDY    20  10  65 NW5       30.42S WCI  13
OMAHA          CLEAR      8  -2  63 N8        30.49S WCI  -4
LINCOLN        CLEAR      7  -3  64 N5        30.48S WCI  -2
FALLS CITY     CLEAR     14   0  53 NE7       30.46S WCI   4
LAMONI         CLEAR     12   0  58 N10       30.42S WCI  -1
DES MOINES     FLURRIES  11   2  67 N7        30.46R WCI   0

$$



USA.gov is the U.S. government's official web portal to all federal, state and local government web resources and services.